Weather History for Fort Benning, GA

Change the Weather History Date:

Wednesday, November 27, 2013

  Actual Average Record
Temperature  
Mean Temperature 38 °F -  
Max Temperature 48 °F 64 °F 80 °F (2001)
Min Temperature 26 °F 37 °F 26 °F (2013)
Degree Days  
Heating Degree Days 28    
Moisture  
Dew Point 39 °F    
Average Humidity 89    
Maximum Humidity 100    
Minimum Humidity 47    
Precipitation  
Precipitation 0.25 in - - ()
Sea Level Pressure  
Sea Level Pressure 29.89 in    
Wind  
Wind Speed 12 mph (NW)    
Max Wind Speed 22 mph    
Max Gust Speed 34 mph    
Visibility 10 miles    
Events Rain    
Averages and records for this station are not official NWS values.
T = Trace of Precipitation, MM = Missing Value Source: NWS Daily Summary

Daily Weather History Graph

Daily Weather History Graph

Search for Another Location

Airport:

Trip Planner

Search our weather history database for the weather conditions in past years. The results will help you decide how hot, cold, wet, or windy it might be!

Date:

Astronomy

Nov. 27, 2013 Rise Set
Actual Time 7:20 AM EST 5:35 PM EST
Civil Twilight 6:53 AM EST 6:01 PM EST
Nautical Twilight 6:23 AM EST 6:31 PM EST
Astronomical Twilight 5:53 AM EST 7:01 PM EST
Moon 1:39 AM EST (11/27) 1:55 PM EST (11/27)
Length of Visible Light 11h 08m
Length of Day
10h 14m
Waning Crescent, 32% of the Moon is Illuminated
Nov 27
Waning Crescent
Dec 2
New
Dec 9
First Quarter
Dec 17
Full
Dec 25
Last Quarter

Hourly Weather History & Observations

Time (EST) Temp. Windchill Dew Point Humidity Pressure Visibility Wind Dir Wind Speed Gust Speed Precip Events Conditions
12:11 AM 48.2 °F - 48.2 °F 100% 29.71 in 10.0 mi NW 5.8 mph - N/A   Light Drizzle
12:24 AM 48.2 °F - 48.2 °F 100% 29.71 in 10.0 mi WNW 5.8 mph - N/A   Overcast
12:49 AM 48.2 °F - 48.2 °F 100% 29.71 in 10.0 mi WNW 6.9 mph - N/A   Light Drizzle
12:58 AM 48.6 °F - 48.4 °F 99% 29.73 in 10.0 mi West 5.8 mph - 0.00 in   Light Drizzle
1:04 AM 48.2 °F - 48.2 °F 100% 29.72 in 10.0 mi West 6.9 mph - N/A   Overcast
1:07 AM 48.2 °F - 48.2 °F 100% 29.72 in 10.0 mi West 6.9 mph - N/A   Light Drizzle
1:12 AM 48.2 °F - 48.2 °F 100% 29.72 in 10.0 mi WNW 6.9 mph - N/A   Light Drizzle
1:22 AM 48.2 °F - 48.2 °F 100% 29.72 in 10.0 mi WNW 8.1 mph - N/A Rain Light Rain
1:27 AM 48.2 °F - 48.2 °F 100% 29.72 in 9.0 mi WNW 9.2 mph - N/A Rain Rain
1:32 AM 48.2 °F - 48.2 °F 100% 29.72 in 8.0 mi West 8.1 mph - N/A Rain Light Rain
1:40 AM 48.2 °F - 48.2 °F 100% 29.73 in 10.0 mi NW 9.2 mph - N/A Rain Light Rain
1:50 AM 48.2 °F - 48.2 °F 100% 29.73 in 9.0 mi WNW 9.2 mph - N/A Rain Light Rain
1:55 AM 48.2 °F - 48.2 °F 100% 29.73 in 9.0 mi WNW 10.4 mph - N/A Rain Light Rain
1:58 AM 48.2 °F - 48.2 °F 100% 29.74 in 8.0 mi WNW 10.4 mph - 0.02 in Rain Light Rain
2:03 AM 48.2 °F - 48.2 °F 100% 29.73 in 9.0 mi WNW 8.1 mph - N/A Rain Light Rain
2:04 AM 48.2 °F - 48.2 °F 100% 29.74 in 9.0 mi WNW 8.1 mph - N/A Rain Light Rain
2:19 AM 48.2 °F - 48.2 °F 100% 29.73 in 9.0 mi WNW 10.4 mph 17.3 mph N/A Rain Light Rain
2:32 AM 46.4 °F 39.5 °F 46.4 °F 100% 29.75 in 9.0 mi NW 17.3 mph 24.2 mph N/A   Overcast
2:34 AM 46.4 °F 39.8 °F 46.4 °F 100% 29.75 in 10.0 mi NW 16.1 mph 24.2 mph N/A Rain Light Rain
2:39 AM 46.4 °F 39.2 °F 46.4 °F 100% 29.75 in 8.0 mi NW 18.4 mph 25.3 mph N/A Rain Light Rain
2:44 AM 46.4 °F 39.0 °F 46.4 °F 100% 29.75 in 6.0 mi NW 19.6 mph 26.5 mph N/A Rain Light Rain
2:54 AM 44.6 °F 37.2 °F 44.6 °F 100% 29.76 in 7.0 mi NW 17.3 mph 26.5 mph N/A Rain Light Rain
2:58 AM 44.6 °F 37.4 °F 44.6 °F 100% 29.77 in 9.0 mi NW 16.1 mph - 0.02 in Rain Light Rain
3:03 AM 44.6 °F 36.4 °F 44.6 °F 100% 29.76 in 10.0 mi NW 20.7 mph 24.2 mph N/A Rain Light Rain
3:18 AM 44.6 °F 37.4 °F 44.6 °F 100% 29.78 in 9.0 mi NW 16.1 mph - N/A Rain Light Rain
3:23 AM 44.6 °F 37.2 °F 42.8 °F 93% 29.77 in 7.0 mi NW 17.3 mph - N/A Rain Light Rain
3:28 AM 42.8 °F 35.4 °F 42.8 °F 100% 29.77 in 6.0 mi NW 15.0 mph - N/A Rain Rain
3:38 AM 42.8 °F 35.8 °F 42.8 °F 100% 29.78 in 7.0 mi WNW 13.8 mph - N/A Rain Heavy Rain
3:43 AM 42.8 °F 35.4 °F 42.8 °F 100% 29.78 in 6.0 mi WNW 15.0 mph - N/A Rain Heavy Rain
3:53 AM 42.8 °F 35.1 °F 42.8 °F 100% 29.80 in 10.0 mi WNW 16.1 mph 20.7 mph N/A Rain Light Rain
3:58 AM 42.6 °F 35.2 °F 42.4 °F 99% 29.81 in 10.0 mi WNW 15.0 mph 20.7 mph 0.04 in Rain Light Rain
4:08 AM 42.8 °F 36.2 °F 42.8 °F 100% 29.80 in 10.0 mi NW 12.7 mph - N/A Rain Light Rain
4:33 AM 42.8 °F 35.8 °F 42.8 °F 100% 29.79 in 10.0 mi WNW 13.8 mph - N/A Rain Rain
4:38 AM 42.8 °F 35.1 °F 41.0 °F 93% 29.80 in 10.0 mi WNW 16.1 mph - N/A Rain Rain
4:43 AM 41.0 °F 33.5 °F 41.0 °F 100% 29.81 in 9.0 mi NW 13.8 mph - N/A Rain Rain
4:48 AM 41.0 °F 33.1 °F 41.0 °F 100% 29.81 in 8.0 mi NW 15.0 mph - N/A Rain Heavy Rain
4:58 AM 41.5 °F 34.6 °F 41.2 °F 99% 29.82 in 10.0 mi NW 12.7 mph 24.2 mph 0.06 in Rain Rain
5:13 AM 41.0 °F 33.9 °F 41.0 °F 100% 29.82 in 10.0 mi WNW 12.7 mph - N/A Rain Light Rain
5:23 AM 41.0 °F 33.1 °F 41.0 °F 100% 29.83 in 10.0 mi WNW 15.0 mph - N/A Rain Rain
5:28 AM 41.0 °F 32.2 °F 41.0 °F 100% 29.83 in 10.0 mi WNW 18.4 mph - N/A Rain Rain
5:38 AM 41.0 °F 33.1 °F 41.0 °F 100% 29.84 in 10.0 mi WNW 15.0 mph 24.2 mph N/A Rain Rain
5:43 AM 41.0 °F 32.2 °F 39.2 °F 93% 29.85 in 10.0 mi WNW 18.4 mph 26.5 mph N/A Rain Rain
5:53 AM 39.2 °F 30.2 °F 39.2 °F 100% 29.85 in 10.0 mi NW 17.3 mph 31.1 mph N/A Rain Rain
5:58 AM 39.2 °F 30.5 °F 39.2 °F 100% 29.87 in 10.0 mi NW 16.1 mph 31.1 mph 0.08 in Rain Rain
6:08 AM 39.2 °F 31.2 °F 39.2 °F 100% 29.86 in 10.0 mi NW 13.8 mph - N/A Rain Light Rain
6:41 AM 37.4 °F 28.2 °F 37.4 °F 100% 29.89 in 10.0 mi NW 16.1 mph 26.5 mph N/A   Scattered Clouds
6:46 AM 37.4 °F 29.3 °F 37.4 °F 100% 29.89 in 10.0 mi NW 12.7 mph - N/A   Mostly Cloudy
6:51 AM 37.4 °F 29.3 °F 37.4 °F 100% 29.89 in 10.0 mi NW 12.7 mph - N/A   Mostly Cloudy
6:56 AM 37.4 °F 28.9 °F 37.4 °F 100% 29.89 in 10.0 mi NW 13.8 mph - N/A   Mostly Cloudy
6:58 AM 37.4 °F 28.5 °F 37.4 °F 100% 29.91 in 10.0 mi NW 15.0 mph - 0.03 in   Mostly Cloudy
7:23 AM 37.4 °F 29.3 °F 37.4 °F 100% 29.91 in 10.0 mi NW 12.7 mph 23.0 mph N/A   Overcast
7:58 AM 37.8 °F 28.6 °F 36.1 °F 94% 29.95 in 10.0 mi NW 16.1 mph 21.9 mph N/A   Overcast
8:08 AM 37.4 °F 27.2 °F 35.6 °F 93% 29.94 in 10.0 mi NW 19.6 mph 26.5 mph N/A   Overcast
8:13 AM 37.4 °F 28.2 °F 35.6 °F 93% 29.95 in 10.0 mi NW 16.1 mph 26.5 mph N/A   Overcast
8:48 AM 37.4 °F 29.3 °F 35.6 °F 93% 29.97 in 10.0 mi NW 12.7 mph 23.0 mph N/A   Overcast
8:58 AM 37.9 °F 28.2 °F 34.3 °F 87% 29.99 in 10.0 mi NW 18.4 mph - N/A   Overcast
9:28 AM 37.4 °F 27.2 °F 32.0 °F 81% 29.98 in 10.0 mi NNW 19.6 mph 34.5 mph N/A   Overcast
9:58 AM 38.1 °F 29.8 °F 31.6 °F 77% 30.01 in 10.0 mi NW 13.8 mph - N/A   Overcast
10:58 AM 39.2 °F 29.0 °F 30.7 °F 72% 30.04 in 10.0 mi NW 21.9 mph 26.5 mph N/A   Overcast
11:03 AM 39.2 °F 29.6 °F 32.0 °F 75% 30.03 in 10.0 mi NW 19.6 mph 28.8 mph N/A   Overcast
11:58 AM 40.6 °F 31.4 °F 30.0 °F 66% 30.05 in 10.0 mi NNW 19.6 mph 27.6 mph N/A   Mostly Cloudy
12:23 PM 42.8 °F 33.8 °F 32.0 °F 66% 30.04 in 10.0 mi NW 21.9 mph 26.5 mph N/A   Scattered Clouds
12:43 PM 41.0 °F 31.4 °F 30.2 °F 65% 30.04 in 10.0 mi NNW 21.9 mph 27.6 mph N/A   Mostly Cloudy
12:53 PM 42.8 °F 34.3 °F 30.2 °F 61% 30.04 in 10.0 mi NNW 19.6 mph 26.5 mph N/A   Mostly Cloudy
12:58 PM 42.1 °F 33.3 °F 29.5 °F 61% 30.05 in 10.0 mi NW 19.6 mph 26.5 mph N/A   Scattered Clouds
1:08 PM 42.8 °F 35.1 °F 30.2 °F 61% 30.04 in 10.0 mi NNW 16.1 mph 24.2 mph N/A   Mostly Cloudy
1:13 PM 44.6 °F 36.6 °F 32.0 °F 61% 30.04 in 10.0 mi NW 19.6 mph 25.3 mph N/A   Scattered Clouds
1:58 PM 45.5 °F 38.3 °F 29.3 °F 53% 30.05 in 10.0 mi NW 17.3 mph 24.2 mph N/A   Partly Cloudy
2:58 PM 45.5 °F 38.6 °F 27.7 °F 50% 30.08 in 10.0 mi NNW 16.1 mph - N/A   Clear
3:58 PM 45.3 °F 39.0 °F 26.1 °F 47% 30.10 in 10.0 mi NNW 13.8 mph 21.9 mph N/A   Clear
4:58 PM 43.5 °F 37.1 °F 25.2 °F 48% 30.13 in 10.0 mi NW 12.7 mph - N/A   Clear
5:58 PM 38.3 °F 32.5 °F 24.3 °F 57% 30.17 in 10.0 mi NW 8.1 mph - N/A   Clear
6:58 PM 36.3 °F 29.5 °F 24.1 °F 61% 30.21 in 10.0 mi NW 9.2 mph - N/A   Clear
7:58 PM 31.3 °F 23.3 °F 23.9 °F 74% 30.23 in 10.0 mi NW 9.2 mph - N/A   Clear
8:58 PM 32.5 °F 24.8 °F 23.0 °F 68% 30.28 in 10.0 mi NW 9.2 mph - N/A   Clear
9:58 PM 28.8 °F 22.6 °F 21.9 °F 76% 30.31 in 10.0 mi WNW 5.8 mph - N/A   Clear
10:58 PM 27.0 °F 20.5 °F 21.9 °F 81% 30.32 in 10.0 mi NW 5.8 mph - N/A   Clear
11:58 PM 26.6 °F 20.0 °F 21.2 °F 80% 30.34 in 10.0 mi NNW 5.8 mph - N/A   Clear